EW8328 Weather Reports


time (UTC)temp
F
wind
direction
speed
knots
gust
knots
rain 1hr
in
rain 24hr
in
rain mn
in
humidity
%
barometer
mb
20260906154321 68 172 3.5 7.0 0.00 0.10 0.10 65 1014.7
20260906153320 68 153 4.3 7.8 0.00 0.10 0.10 66 1014.9
20260906152821 68 165 2.6 7.0 0.00 0.10 0.10 66 1015.1
20260906151821 69 158 2.6 4.3 0.00 0.10 0.10 65 1015.2
20260906151320 69 171 3.5 6.1 0.00 0.10 0.10 65 1015.3
20260906145822 69 172 4.3 7.8 0.00 0.10 0.10 63 1015.5
20260906145320 69 158 3.5 7.8 0.00 0.10 0.10 63 1015.6
20260906144322 69 195 3.5 7.8 0.00 0.10 0.10 61 1015.7
20260906143821 70 226 4.3 8.7 0.00 0.10 0.10 62 1015.8
20260906143320 70 184 5.2 8.7 0.00 0.10 0.10 63 1015.9
20260906141821 69 165 2.6 8.7 0.00 0.10 0.10 66 1016.0
20260906141321 69 168 4.3 8.7 0.00 0.10 0.10 66 1016.0
20260906140820 68 179 2.6 7.0 0.00 0.10 0.10 73 1016.1
20260906134822 67 112 2.6 7.8 0.00 0.10 0.10 76 1016.1
20260906133820 67 98 2.6 4.3 0.00 0.10 0.10 76 1016.3
20260906133321 68 107 3.5 7.0 0.00 0.10 0.10 76 1016.3
20260906132821 68 109 5.2 7.8 0.00 0.10 0.10 75 1016.3
20260906132321 67 102 3.5 7.0 0.00 0.10 0.10 77 1016.3
20260906131821 67 83 3.5 6.1 0.00 0.10 0.10 79 1016.5
20260906131321 66 97 2.6 7.8 0.00 0.10 0.10 78 1016.5
20260906130321 65 100 0.9 7.8 0.00 0.10 0.10 82 1016.8
20260906125820 64 80 1.7 5.2 0.00 0.10 0.10 83 1016.8
20260906125321 63 96 2.6 6.1 0.00 0.10 0.10 84 1016.8
20260906124822 63 93 1.7 5.2 0.00 0.10 0.10 85 1016.8
20260906124321 63 96 4.3 10.4 0.00 0.10 0.10 83 1016.9
20260906123822 63 137 2.6 7.0 0.00 0.10 0.10 83 1017.1
20260906123320 62 103 1.7 7.0 0.00 0.10 0.10 82 1017.1
20260906122820 62 97 3.5 7.0 0.00 0.10 0.10 82 1017.1
20260906121821 62 85 2.6 8.7 0.00 0.10 0.10 85 1017.2
20260906121322 61 74 3.5 6.1 0.00 0.10 0.10 86 1017.1
20260906120822 60 99 1.7 4.3 0.00 0.10 0.10 86 1017.1
20260906120321 60 77 1.7 5.2 0.00 0.10 0.10 88 1017.2
20260906115821 59 96 2.6 4.3 0.00 0.10 0.10 88 1017.3
20260906115321 59 85 2.6 6.1 0.01 0.10 0.10 90 1017.6
20260906114821 59 98 0.9 6.1 0.02 0.10 0.10 90 1017.8
20260906114320 59 90 2.6 6.1 0.04 0.10 0.10 89 1017.8
20260906113821 58 103 0.9 2.6 0.04 0.10 0.10 89 1017.8
20260906113322 58 90 1.7 4.3 0.04 0.10 0.10 90 1018.0
20260906112821 58 92 0.9 4.3 0.04 0.10 0.10 91 1018.1
20260906111821 58 82 0.9 4.3 0.05 0.10 0.10 91 1018.3
20260906110821 57 349 0.9 4.3 0.06 0.10 0.10 88 1018.4
20260906110321 57 86 0.9 4.3 0.06 0.10 0.10 88 1018.4
20260906105821 57 103 1.7 4.3 0.06 0.10 0.10 88 1018.5
20260906105321 57 199 2.6 6.1 0.05 0.09 0.09 88 1018.5
20260906104820 57 144 2.6 5.2 0.03 0.08 0.08 87 1018.7
20260906104320 57 167 1.7 7.8 0.02 0.06 0.06 87 1018.7
20260906103320 57 210 0.9 6.1 0.03 0.06 0.06 87 1018.8
20260906102821 57 195 2.6 6.1 0.03 0.06 0.06 86 1018.9
20260906102321 57 203 2.6 6.1 0.03 0.06 0.06 86 1018.9
20260906101321 57 224 4.3 7.0 0.02 0.05 0.05 84 1018.9
20260906100821 57 157 2.6 7.0 0.03 0.05 0.05 83 1018.9
20260906100321 57 228 2.6 7.8 0.03 0.05 0.05 83 1018.9
20260906095820 57 139 1.7 5.2 0.03 0.05 0.05 83 1018.9
20260906095320 57 130 1.7 4.3 0.04 0.05 0.05 83 1018.9
20260906094820 57 128 4.3 7.0 0.04 0.05 0.05 84 1019.0
20260906094320 58 187 2.6 7.8 0.05 0.05 0.05 85 1019.1
20260906093820 58 139 3.5 6.1 0.04 0.04 0.04 85 1019.2
20260906093320 58 195 5.2 10.4 0.03 0.03 0.03 84 1019.2
20260906092821 58 195 2.6 6.1 0.03 0.03 0.03 85 1019.3
20260906091822 58 238 4.3 7.8 0.02 0.02 0.02 84 1019.4
20260906091321 58 216 3.5 6.1 0.02 0.02 0.02 84 1019.4
20260906090820 58 252 2.6 4.3 0.02 0.02 0.02 84 1019.4
20260906085821 59 235 1.7 4.3 0.02 0.02 0.02 80 1019.3
20260906085320 59 195 1.7 4.3 0.01 0.01 0.01 80 1019.2
20260906084820 59 209 1.7 5.2 0.01 0.01 0.01 79 1019.1
20260906084320 59 245 2.6 6.1 0.00 0.00 0.00 80 1019.1
20260906083821 59 150 0.9 5.2 0.00 0.00 0.00 79 1019.1
20260906083321 59 218 0.9 1.7 0.00 0.00 0.00 78 1019.0
20260906082821 59 214 2.6 6.1 0.00 0.00 0.00 77 1019.1
20260906082320 59 123 0.0 1.7 0.00 0.00 0.00 79 1019.1
20260906081821 59 123 0.9 1.7 0.00 0.00 0.00 78 1019.1
20260906081320 59 123 0.0 1.7 0.00 0.00 0.00 79 1019.0
20260906080320 59 123 0.0 0.9 0.00 0.00 0.00 79 1019.1
20260906075820 59 123 0.0 0.9 0.00 0.00 0.00 80 1019.0
20260906075320 58 123 0.0 1.7 0.00 0.00 0.00 79 1019.1
20260906074321 58 123 0.0 0.0 0.00 0.00 0.00 80 1019.0
20260906073320 57 123 0.0 1.7 0.00 0.00 0.00 81 1019.1
20260906072820 57 123 0.0 1.7 0.00 0.00 0.00 81 1019.1
20260906072320 57 123 0.9 1.7 0.00 0.00 0.00 79 1019.1
20260906071821 58 120 0.9 2.6 0.00 0.00 0.00 79 1019.1
20260906071321 58 165 0.9 2.6 0.00 0.00 0.00 79 1019.2
20260906070820 57 300 0.9 2.6 0.00 0.00 0.00 80 1019.3
20260906070321 57 304 0.9 1.7 0.00 0.00 0.00 81 1019.4
20260906065820 56 304 0.0 1.7 0.00 0.00 0.00 81 1019.4
20260906064820 55 304 0.0 1.7 0.00 0.00 0.00 83 1019.4
20260906064320 55 304 0.0 1.7 0.00 0.00 0.00 85 1019.5
20260906063321 55 304 0.0 1.7 0.00 0.00 0.00 86 1019.5
20260906062322 54 304 0.9 1.7 0.00 0.00 0.00 87 1019.6
20260906061320 54 304 0.0 0.0 0.00 0.00 0.00 87 1019.8
20260906060821 54 304 0.9 2.6 0.00 0.00 0.00 87 1019.9
20260906060321 54 204 0.9 1.7 0.00 0.00 0.00 87 1020.0
20260906055820 54 204 0.0 0.9 0.00 0.00 0.00 87 1020.1
20260906055320 54 204 0.9 1.7 0.00 0.00 0.00 86 1020.2
20260906054821 54 204 0.0 0.9 0.00 0.00 0.00 86 1020.0
20260906054321 54 204 0.0 1.7 0.00 0.00 0.00 86 1020.0
20260906053820 54 204 0.9 1.7 0.00 0.00 0.00 86 1019.9
20260906053320 53 244 0.9 2.6 0.00 0.00 0.00 87 1019.9
20260906052820 53 123 0.9 1.7 0.00 0.00 0.00 88 1019.9
20260906052320 52 123 0.9 1.7 0.00 0.00 0.00 89 1019.9
20260906051820 52 123 0.9 2.6 0.00 0.00 0.00 89 1020.0
20260906051320 52 340 0.9 1.7 0.00 0.00 0.00 89 1020.0
20260906050820 52 340 1.7 1.7 0.00 0.00 0.00 90 1020.0
20260906050320 52 340 0.9 1.7 0.00 0.00 0.00 89 1020.1
20260906045821 52 340 0.9 1.7 0.00 0.00 0.00 89 1020.1
20260906045320 52 340 0.9 1.7 0.00 0.00 0.00 90 1020.2
20260906044320 51 340 0.9 1.7 0.00 0.00 0.00 90 1020.3
20260906043820 51 340 0.9 1.7 0.00 0.00 0.00 90 1020.3
20260906043320 51 340 0.9 1.7 0.00 0.00 0.00 90 1020.4
20260906041821 51 83 0.9 1.7 0.00 0.00 0.00 90 1020.5
20260906041320 52 83 0.0 0.9 0.00 0.00 0.00 90 1020.5
20260906040820 52 83 0.0 1.7 0.00 0.00 0.00 90 1020.6
20260906040320 52 83 0.0 0.9 0.00 0.00 0.00 90 1020.7
20260906035821 52 83 0.9 1.7 0.00 0.00 0.00 90 1020.7
20260906033822 52 83 0.0 0.9 0.00 0.00 0.00 90 1020.8
20260906033320 52 83 0.9 2.6 0.00 0.00 0.00 90 1020.9
20260906032821 52 82 1.7 2.6 0.00 0.00 0.00 90 1021.0
20260906031821 52 51 0.0 0.9 0.00 0.00 0.00 90 1021.2
20260906031321 52 51 0.9 1.7 0.00 0.00 0.00 90 1021.3
20260906030820 52 51 0.9 1.7 0.00 0.00 0.00 90 1021.3
20260906030320 52 39 1.7 2.6 0.00 0.00 0.00 90 1021.4
20260906025820 52 34 1.7 2.6 0.00 0.00 0.00 90 1021.5
20260906025320 52 15 0.9 2.6 0.00 0.00 0.00 91 1021.5
20260906024820 51 15 0.9 1.7 0.00 0.00 0.00 90 1021.6
20260906024320 51 15 0.0 1.7 0.00 0.00 0.00 89 1021.7
20260906023821 52 15 0.0 0.9 0.00 0.00 0.00 90 1021.8
20260906023320 52 15 0.0 1.7 0.00 0.00 0.00 90 1021.8
20260906022820 51 15 0.9 2.6 0.00 0.00 0.00 90 1021.9
20260906022321 51 252 1.7 1.7 0.00 0.00 0.00 90 1021.9
20260906021821 51 252 0.0 1.7 0.00 0.00 0.00 90 1021.9
20260906021320 51 252 0.9 0.9 0.00 0.00 0.00 90 1021.9
20260906020820 51 252 0.9 1.7 0.00 0.00 0.00 90 1021.9
20260906020320 51 252 0.9 1.7 0.00 0.00 0.00 90 1021.9
20260906015821 51 252 0.9 1.7 0.00 0.00 0.00 90 1021.9
20260906015320 51 252 0.0 0.9 0.00 0.00 0.00 90 1022.0
20260906014820 51 252 1.7 1.7 0.00 0.00 0.00 90 1022.1
20260906014320 51 252 0.9 1.7 0.00 0.00 0.00 90 1022.2
20260906013820 51 252 0.9 0.9 0.00 0.00 0.00 90 1022.3
20260906013320 51 252 0.0 0.0 0.00 0.00 0.00 90 1022.3
20260906012820 51 252 0.0 0.0 0.00 0.00 0.00 90 1022.4
20260906012320 51 252 0.0 0.0 0.00 0.00 0.00 90 1022.5
20260906011820 51 252 0.0 0.0 0.00 0.00 0.00 90 1022.5
20260906011320 51 252 0.0 0.0 0.00 0.00 0.00 89 1022.6
20260906010820 51 252 0.0 0.0 0.00 0.00 0.00 89 1022.6
20260906004820 51 252 0.9 0.9 0.00 0.00 0.00 89 1022.6
20260906004320 51 252 0.0 0.9 0.00 0.00 0.00 89 1022.7
20260906003821 51 252 0.9 1.7 0.00 0.00 0.00 89 1022.7
20260906002820 51 252 0.9 0.9 0.00 0.00 0.00 89 1022.8
20260906002319 51 252 0.9 1.7 0.00 0.00 0.00 89 1022.9
20260906000820 51 252 0.9 1.7 0.00 0.00 0.00 89 1023.0
20260906000320 51 252 1.7 1.7 0.00 0.00 0.00 88 1023.1
20260905235820 51 252 1.7 1.7 0.00 0.00 0.00 88 1023.1
20260905234820 51 252 0.9 1.7 0.00 0.00 0.00 88 1023.3
20260905234320 52 252 0.9 0.9 0.00 0.00 0.00 88 1023.3
20260905233820 52 252 0.9 0.9 0.00 0.00 0.00 87 1023.3
20260905232821 52 252 0.0 0.0 0.00 0.00 0.00 87 1023.5
20260905232319 52 252 0.0 0.9 0.00 0.00 0.00 87 1023.5
20260905231820 52 252 0.9 0.9 0.00 0.00 0.00 87 1023.5
20260905230903 52 252 0.9 0.9 0.00 0.00 0.00 87 1023.4
20260905230320 52 252 0.9 1.7 0.00 0.00 0.00 87 1023.4
20260905225820 52 252 0.9 1.7 0.00 0.00 0.00 86 1023.4
20260905225320 53 252 0.9 0.9 0.00 0.00 0.00 86 1023.3
20260905224822 53 252 0.9 0.9 0.00 0.00 0.00 86 1023.3
20260905224320 53 252 0.9 0.9 0.00 0.00 0.00 86 1023.3
20260905223820 53 252 0.9 0.9 0.00 0.00 0.00 86 1023.3
20260905223320 54 252 0.9 0.9 0.00 0.00 0.00 86 1023.2
20260905222820 54 252 0.9 0.9 0.00 0.00 0.00 86 1023.2
20260905222320 54 252 0.9 1.7 0.00 0.00 0.00 86 1023.3
20260905221821 54 252 0.9 0.9 0.00 0.00 0.00 86 1023.3
20260905221320 54 252 0.9 1.7 0.00 0.00 0.00 85 1023.3
20260905220820 54 252 0.0 1.7 0.00 0.00 0.00 86 1023.3
20260905220320 54 252 0.0 1.7 0.00 0.00 0.00 86 1023.3
20260905215821 54 252 0.0 1.7 0.00 0.00 0.00 85 1023.3
20260905215320 54 252 0.0 0.9 0.00 0.00 0.00 85 1023.3
20260905214821 54 252 0.9 0.9 0.00 0.00 0.00 85 1023.3
20260905214320 54 252 0.9 0.9 0.00 0.00 0.00 85 1023.4
20260905213819 54 252 0.9 0.9 0.00 0.00 0.00 84 1023.4
20260905213320 54 252 0.0 1.7 0.00 0.00 0.00 84 1023.5
20260905212821 55 252 0.0 0.9 0.00 0.00 0.00 84 1023.5
20260905212320 55 252 0.9 1.7 0.00 0.00 0.00 83 1023.5
20260905211822 55 252 0.0 1.7 0.00 0.00 0.00 83 1023.4
20260905210820 55 252 0.0 1.7 0.00 0.00 0.00 83 1023.6
20260905210320 55 252 0.0 0.9 0.00 0.00 0.00 82 1023.6
20260905205820 56 252 0.0 1.7 0.00 0.00 0.00 82 1023.6
20260905204820 56 252 0.9 1.7 0.00 0.00 0.00 82 1023.6
20260905204320 56 252 0.9 1.7 0.00 0.00 0.00 81 1023.6
20260905203320 56 252 0.0 1.7 0.00 0.00 0.00 81 1023.5
20260905202820 56 252 0.0 1.7 0.00 0.00 0.00 81 1023.4
20260905202320 56 252 0.9 1.7 0.00 0.00 0.00 81 1023.4
20260905201320 56 252 0.0 1.7 0.00 0.00 0.00 81 1023.4
20260905200820 56 252 0.0 0.9 0.00 0.00 0.00 81 1023.4
20260905200319 56 252 0.0 0.0 0.00 0.00 0.00 81 1023.3
20260905195820 56 252 0.0 0.0 0.00 0.00 0.00 81 1023.3
20260905195320 56 252 0.0 1.7 0.00 0.00 0.00 81 1023.3
20260905194820 56 252 0.0 0.9 0.00 0.00 0.00 80 1023.3
20260905193820 56 252 0.0 0.0 0.00 0.00 0.00 78 1023.3
20260905193320 57 252 0.0 1.7 0.00 0.00 0.00 78 1023.2
20260905191820 58 252 0.9 0.9 0.00 0.00 0.00 77 1022.9
20260905190320 58 252 0.0 1.7 0.00 0.00 0.00 76 1022.7
20260905185820 58 252 0.9 2.6 0.00 0.00 0.00 75 1022.9
20260905185320 59 252 0.9 2.6 0.00 0.00 0.00 75 1022.9
20260905184820 59 252 0.9 1.7 0.00 0.00 0.00 74 1022.8
20260905184320 59 252 1.7 2.6 0.00 0.00 0.00 74 1023.0
20260905183819 59 252 0.9 4.3 0.00 0.00 0.00 74 1023.0
20260905183320 59 253 0.9 2.6 0.00 0.00 0.00 73 1023.0
20260905182820 59 253 1.7 2.6 0.00 0.00 0.00 73 1023.0
20260905182320 59 250 0.9 2.6 0.00 0.00 0.00 72 1022.9
20260905181819 59 264 0.9 4.3 0.00 0.00 0.00 72 1022.8
20260905181319 60 264 0.9 2.6 0.00 0.00 0.00 72 1022.8
20260905180822 60 273 0.9 1.7 0.00 0.00 0.00 71 1022.8
20260905180320 60 282 0.9 2.6 0.00 0.00 0.00 71 1023.0
20260905175820 60 256 1.7 2.6 0.00 0.00 0.00 71 1023.1
20260905175320 60 251 1.7 6.1 0.00 0.00 0.00 70 1023.2
20260905174819 60 252 2.6 7.0 0.00 0.00 0.00 70 1023.0
20260905174320 60 261 2.6 7.0 0.00 0.00 0.00 69 1023.0
20260905173820 60 260 1.7 5.2 0.00 0.00 0.00 69 1023.0
20260905173319 60 280 2.6 5.2 0.00 0.00 0.00 69 1023.0
20260905172820 60 247 2.6 5.2 0.00 0.00 0.00 69 1022.9
20260905171820 61 252 3.5 6.1 0.00 0.00 0.00 68 1023.0
20260905171319 61 252 2.6 5.2 0.00 0.00 0.00 69 1023.0
20260905170819 61 236 1.7 4.3 0.00 0.00 0.00 68 1022.8
20260905170319 61 242 2.6 6.1 0.00 0.00 0.00 67 1022.9
20260905165820 62 266 3.5 7.0 0.00 0.00 0.00 66 1022.9
20260905165319 62 270 2.6 6.1 0.00 0.00 0.00 65 1022.9
20260905164820 62 240 2.6 6.1 0.00 0.00 0.00 65 1022.9
20260905164320 62 245 1.7 6.1 0.00 0.00 0.00 64 1022.8
20260905163819 63 254 3.5 7.0 0.00 0.00 0.00 64 1022.7
20260905163319 63 246 4.3 7.8 0.00 0.00 0.00 66 1022.7
20260905162821 62 250 2.6 6.1 0.00 0.00 0.00 67 1022.6
20260905162319 62 243 5.2 7.8 0.00 0.00 0.00 66 1022.6
20260905161820 62 239 2.6 6.1 0.00 0.00 0.00 66 1022.6
20260905161321 63 240 4.3 7.8 0.00 0.00 0.00 65 1022.5
20260905160819 62 250 4.3 10.4 0.00 0.00 0.00 66 1022.5
20260905160320 62 251 5.2 10.4 0.00 0.00 0.00 67 1022.4
20260905155820 62 252 5.2 8.7 0.00 0.00 0.00 66 1022.4
20260905155319 63 251 3.5 7.8 0.00 0.00 0.00 64 1022.4
20260905154820 64 249 5.2 10.4 0.00 0.00 0.00 63 1022.4